Location: Beadle
(51.4667°N, 109.0000°W)
Time: 21:53:51
(UTC+00:00)

CUBESAT XI-V - Visible Passes

Search period start: 27 June 2022 00:00
Search period end: 07 July 2022 00:00
Orbit: 666 x 692 km, 98.1° (Epoch: 27 June)

Date Brightness Start Highest point End Pass type
(mag) Time Alt. Az. Time Alt. Az. Time Alt. Az.
27 Jun ? 07:10:58 10° E 07:13:38 15° NE 07:16:18 10° NNE visible
27 Jun ? 08:46:02 12° SSE 08:50:17 88° ENE 08:54:55 10° NNW visible
28 Jun ? 07:44:54 10° ESE 07:48:47 27° ENE 07:52:40 10° N visible
28 Jun ? 09:21:58 13° S 09:25:53 45° W 09:30:19 10° NNW visible
29 Jun ? 08:19:36 10° SE 08:24:05 52° ENE 08:28:34 10° N visible
29 Jun ? 09:58:02 10° SW 10:01:39 23° W 10:05:18 10° NW visible
30 Jun ? 07:19:44 10° E 07:22:48 18° ENE 07:25:51 10° NNE visible
30 Jun ? 08:55:28 13° S 08:59:33 77° WSW 09:04:10 10° NNW visible
01 Jul ? 07:53:54 10° SE 07:57:58 32° ENE 08:02:03 10° N visible
01 Jul ? 09:31:26 13° SSW 09:35:12 37° W 09:39:29 10° NNW visible
02 Jul ? 06:55:22 10° ENE 06:56:54 12° NE 06:58:25 10° NNE visible
02 Jul ? 08:28:59 11° SSE 08:33:18 63° ENE 08:37:52 10° N visible
02 Jul ? 10:07:46 10° SW 10:11:01 19° W 10:14:17 10° NW visible
03 Jul ? 07:28:33 10° ESE 07:31:56 21° ENE 07:35:20 10° N visible
03 Jul ? 09:04:56 14° S 09:08:49 64° WSW 09:13:24 10° NNW visible
04 Jul ? 08:02:55 10° SE 08:07:09 38° ENE 08:11:24 10° N visible
04 Jul ? 09:40:53 12° SSW 09:44:31 31° W 09:48:37 10° NNW visible
05 Jul ? 07:03:48 10° E 07:06:00 13° NE 07:08:12 10° NNE visible
05 Jul ? 08:38:27 13° SSE 08:42:33 76° ENE 08:47:08 10° NNW visible
05 Jul ? 10:17:36 10° SW 10:20:23 16° W 10:23:10 10° NW visible
06 Jul ? 07:37:26 10° ESE 07:41:05 24° ENE 07:44:45 10° N visible
06 Jul ? 09:14:24 15° S 09:18:05 53° W 09:22:36 10° NNW visible
